Location: Cortos
(40.7190°N, 4.5893°W)
Time: 04:36:16
(UTC+00:00)

Cosmos 2360 Rocket - Pass Details

Date: 05 July 2020
Orbit: 832 x 846 km, 71.0° (Epoch: 11 August)

Event Time Altitude Azimuth Distance (km) Brightness Sun altitude
Rises 20:29:09 0° 187° (S) 3,369 5.0 -6.5°
Reaches altitude 10° 20:31:37 10° 183° (S) 2,441 4.3 -6.9°
Maximum altitude 20:37:03 53° 108° (ESE) 1,027 2.3 -7.7°
Drops below altitude 10° 20:42:31 10° 33° (NNE) 2,467 4.7 -8.5°
Sets 20:45:01 0° 29° (NNE) 3,407 5.5 -8.9°
